SL-12 R/B(2)

Satellite information

Favourite Embed

Satellite Type and Status

ROCKET BODYIN ORBIT

Key statistics

Satellite SL-12 R/B(2) at a glance.

Uptime

6338

Days in orbit

Revolutions

≈ 1.0

Per day

Orbit

OTHER

Other

Inclination

10.1

Latest

Satellite identification and parameters

Extended collection of information and parameters for SL-12 R/B(2).

Object identification

Identified? True

Debris? False

Object name: SL-12 R/B(2)

International designator: 2008-033D

Object number (NORAD): 33111

Object ID (CCSDS): 33111

Country: COMMONWEALTH OF INDEPENDENT STATES (CIS)

Current information (Y/N): Y

RCS size: LARGE

Orbital parameters

Period: 1436.52 minutes

Inclination: 10.1271 deg

SMA: 42173.012 km

Apoapsis: 35917.959 km

Periapsis: 35671.795 km

RAAN: 43.0361 deg

Eccentricy: 0.0029185

Argument of periapsis: 331.7792 deg

Mean anomaly: 265.5956 deg

Mean motion: 1.00242255 rev/day

Mean motion (dot): 0.00000004 rev/day2

B* drag term: 0.0 1/REarth

Two-line elements (TLE)

Creation date: Nov. 2, 2025, 3:46 p.m.

Reference frame: TEME

Reference center: EARTH

Epoch: Nov. 2, 2025, 11:28 a.m. UTC

TLE line 0: 0 SL-12 R/B(2)

TLE line 1: 1 33111U 08033D 25306.47827568 .00000004 00000-0 00000+0 0 9999

TLE line 2: 2 33111 10.1271 43.0361 0029185 331.7792 265.5956 1.00242255 63533

Live tracking on map

Real-time ground track for satellite SL-12 R/B(2).

In-orbit conjunctions

A list of the most updated potential collisions computed for object SL-12 R/B(2).

Target Orbit TCA Probability of collision Miss distance Type
RADUGA 14 OTHER 2024-11-19 08:23:51 TBA 1897.0 (m) PAYLOAD

Associated space launch

There is no information available about the launch of this satellite, yet. Check back as we update our databases every day.

Latest news about this satellite

There are no fresh news available about this satellite. Check back as we update our databases every day.


Newsletter sign-up

Weekly statistics, charts and insights to help you stay on top of the space industry.